GFSSE_850_temp_057.txt.gz
Temp
15 15 16 16 17 17 17 17 17 16 16 16 16 16 16 16 16 16 16 16 16 15 15 15 14 14 13 13 13 14 13 13 13 13 13 13 13 13 13 13 13 13 13
16 15 16 16 17 17 17 17 17 16 16 16 16 16 16 16 16 16 16 16 15 15 15 14 14 13 13 14 14 14 14 13 13 13 14 14 13 13 13 13 13 13 12
16 15 16 16 17 17 17 17 17 16 16 16 16 16 16 16 16 16 16 15 15 15 14 14 13 13 14 14 14 13 13 13 13 13 13 13 13 13 13 13 13 13 12
15 15 15 16 16 16 16 17 16 15 15 16 16 16 16 16 16 16 16 15 15 15 14 14 13 13 14 14 14 13 13 13 13 13 12 12 13 12 12 12 13 13 12
14 15 15 15 15 15 15 15 15 15 15 16 16 16 16 16 16 16 15 15 15 14 14 13 13 13 13 13 13 13 13 12 12 12 12 12 12 12 12 12 12 12 12
14 14 14 15 15 16 15 15 15 15 15 16 16 16 16 16 15 15 15 15 14 14 14 14 13 13 13 13 13 13 12 12 12 12 12 12 12 11 12 11 11 12 12
14 14 14 14 14 15 14 14 15 15 15 16 16 16 16 15 15 15 15 15 14 14 14 14 14 14 13 13 13 13 12 12 12 12 12 11 11 11 11 11 11 11 11
14 14 13 13 13 14 13 14 15 16 15 15 15 15 15 15 15 15 15 14 14 14 14 14 14 14 13 13 13 12 12 12 12 11 11 11 11 11 11 11 10 10 11
14 13 12 12 12 12 13 15 16 15 15 15 15 15 15 15 15 15 14 14 14 14 14 14 13 13 13 12 12 12 12 12 11 11 10 10 10 10 10 10 10 10 10
12 12 12 12 11 12 13 15 15 15 15 15 15 14 14 14 14 14 14 13 13 13 13 13 13 13 13 12 11 11 11 11 11 10 10 9 9 9 9 9 9 9 9
11 12 12 11 12 12 13 14 14 14 14 14 14 14 14 13 13 13 13 13 13 13 13 13 13 13 12 12 12 11 11 11 10 10 10 9 8 8 8 8 8 8 8
11 10 12 12 12 12 13 14 14 14 14 14 14 13 13 13 12 13 13 13 13 13 13 13 12 12 11 11 11 11 10 10 9 9 9 8 8 7 7 7 7 7 7
11 11 12 12 12 12 13 14 14 13 13 13 13 13 12 12 12 12 12 12 12 12 12 12 12 11 11 10 10 10 10 9 9 8 8 8 7 7 7 6 6 6 6
13 13 13 12 12 12 13 13 13 13 13 12 12 12 12 12 12 12 12 12 12 12 11 11 11 10 10 10 10 10 10 9 8 8 8 7 7 7 6 6 6 5 5
13 12 12 12 12 13 13 13 13 12 12 12 12 13 13 13 13 12 12 12 12 11 10 10 10 10 10 10 9 9 10 9 8 8 7 7 7 6 6 5 4 4 3
12 13 13 13 12 13 13 13 13 12 12 12 12 13 12 12 12 12 12 11 11 10 10 10 10 10 10 10 9 9 9 7 7 7 7 7 6 6 5 4 4 3 3
12 13 13 13 13 13 12 12 12 12 13 13 13 12 12 12 12 12 11 11 10 10 10 10 10 10 9 9 9 8 7 6 6 6 6 6 6 5 4 4 4 3 3
13 12 12 13 13 13 13 12 12 12 13 12 12 12 12 12 12 11 11 10 10 10 10 10 9 9 9 8 8 7 7 6 6 5 4 4 4 4 3 3 3 3 3
13 13 13 13 13 12 12 12 12 12 12 12 12 12 12 12 11 11 10 10 10 10 10 10 9 8 7 7 6 5 5 5 4 4 4 4 3 3 3 3 3 2 2
13 13 13 13 13 13 12 12 12 12 11 12 12 12 12 11 11 11 10 10 10 10 9 9 8 7 6 5 5 5 5 4 4 3 3 3 3 3 3 2 2 1 1
13 12 12 13 13 12 12 12 12 12 12 12 11 11 11 11 11 11 10 10 9 9 8 8 7 6 5 5 5 5 4 4 3 2 3 2 2 2 1 1 1 1 1
13 13 13 13 13 13 12 12 12 12 11 11 11 11 11 11 10 10 10 9 9 8 7 7 7 6 6 5 4 4 3 3 3 2 1 1 1 0 0 0 0 0 0
14 14 15 15 14 13 12 12 12 11 11 11 10 11 10 10 11 10 9 9 8 7 7 7 6 6 5 4 4 3 2 2 1 1 1 0 -0 0 -0 -0 -1 -1 -0
15 15 15 14 13 13 12 12 12 12 12 12 11 11 10 10 10 9 8 7 7 7 6 6 5 4 4 4 3 2 2 1 0 0 0 -0 -0 -1 -1 -1 -1 -1 -1
15 15 14 13 13 13 13 12 12 12 12 11 11 10 10 9 8 7 7 6 6 5 5 5 4 4 3 3 2 2 1 1 0 -0 -1 -1 -1 -1 -1 -1 -1 -1 -2
15 14 14 14 13 13 12 12 11 11 12 11 10 10 9 8 7 7 6 5 4 4 4 4 4 3 3 3 2 2 1 0 -0 -0 -1 -1 -2 -2 -2 -2 -2 -2 -2

GFSSE_850_temp_060.txt.gz
Temp
16 15 15 15 16 17 17 17 16 16 16 16 16 16 16 16 16 16 16 16 16 15 15 15 15 14 14 14 13 13 13 13 13 13 13 13 13 13 13 13 13 13 13
15 14 15 15 16 17 17 17 16 16 17 17 16 16 16 16 16 16 16 15 15 14 14 14 14 14 14 13 13 13 13 13 13 13 13 13 13 13 13 12 12 12 12
15 15 15 15 16 16 17 17 16 16 16 17 16 16 16 16 16 15 15 15 15 14 14 14 14 14 13 13 13 13 13 13 13 12 12 13 12 12 12 12 12 12 12
14 15 15 15 15 16 16 16 16 16 17 17 16 16 16 16 15 15 15 15 14 14 13 13 14 14 14 13 13 13 12 12 12 12 12 12 12 12 12 12 12 12 12
15 14 14 15 15 15 16 15 16 16 16 16 16 15 15 16 15 15 14 14 14 13 13 13 14 14 14 13 13 12 12 12 12 12 12 12 12 11 12 12 12 12 12
14 14 14 15 15 15 16 16 16 15 16 16 15 15 15 15 15 14 14 14 14 14 13 13 13 13 13 13 12 12 12 12 12 12 12 11 11 11 11 11 11 11 12
14 14 14 14 14 15 15 15 16 15 16 16 15 15 15 15 15 14 14 14 13 14 13 13 13 13 13 13 12 12 12 11 11 11 11 11 11 11 11 11 11 11 11
14 14 13 13 13 13 12 14 15 15 16 15 15 14 14 14 14 14 14 14 14 13 13 13 13 13 13 12 12 12 11 11 11 11 11 10 10 10 10 10 10 10 10
14 13 12 12 12 12 12 14 15 15 15 15 14 14 14 14 14 13 14 14 14 14 13 13 12 12 12 12 12 12 11 11 11 10 10 10 9 9 10 9 9 9 10
13 13 11 11 12 11 12 12 15 15 15 15 14 14 14 13 13 13 13 13 14 13 13 13 13 12 12 12 11 11 11 10 10 10 10 9 8 8 9 9 8 9 9
12 12 12 11 11 12 12 13 14 14 14 14 13 13 13 13 13 13 13 13 13 13 13 13 12 12 12 11 11 11 11 10 10 10 9 9 8 7 8 8 8 8 7
12 11 10 10 11 13 12 13 14 14 14 14 13 13 13 13 13 13 13 13 13 13 12 12 12 12 11 11 11 10 10 9 9 9 9 8 8 8 7 7 7 6 6
11 11 10 11 12 12 12 13 13 13 13 13 13 13 13 13 12 12 13 13 13 13 12 12 12 11 11 11 10 10 10 9 9 9 8 7 7 6 6 6 5 5 5
10 12 10 12 12 12 12 13 13 13 13 13 12 12 12 12 12 12 12 12 12 12 12 12 11 10 10 10 10 10 10 9 9 9 8 7 7 7 5 5 4 4 3
11 11 12 12 12 12 12 12 13 13 13 12 12 12 12 12 12 12 12 12 12 11 11 10 10 10 10 10 10 9 9 9 9 9 8 7 7 6 5 4 4 4 3
11 11 12 12 11 12 12 12 12 13 12 12 12 12 12 12 12 12 12 11 11 11 10 10 10 10 10 9 9 8 8 8 8 8 7 7 6 6 5 4 4 4 3
12 12 12 12 12 12 13 12 12 12 12 12 12 12 12 12 12 12 12 11 11 10 10 10 9 10 9 9 9 8 8 7 7 7 6 6 5 5 4 4 4 3 3
13 13 12 12 12 12 12 12 12 12 12 12 12 12 12 12 12 12 11 10 10 10 9 9 9 9 9 9 8 7 7 6 6 5 4 4 4 4 3 3 3 3 3
13 13 12 13 13 13 12 12 12 12 12 11 12 12 12 12 11 11 10 10 10 9 10 9 9 9 8 8 7 6 6 5 4 4 4 4 4 4 3 3 3 3 2
13 13 12 12 12 12 12 12 11 11 11 12 12 11 12 12 11 11 10 10 10 10 9 9 8 8 7 6 6 5 5 5 4 4 3 3 3 3 3 2 2 1 1
13 13 13 12 12 12 12 12 12 12 12 12 11 11 11 12 11 10 10 10 9 9 8 8 7 6 5 5 5 5 4 4 4 4 3 3 3 2 1 1 0 0 0
14 14 13 13 13 13 13 13 12 12 12 11 11 11 11 11 10 10 9 9 8 8 7 7 6 5 5 5 4 4 4 4 3 3 3 2 1 1 0 -0 -0 -0 -0
15 15 14 14 13 13 13 12 12 12 11 11 11 11 11 10 9 9 8 8 7 7 6 6 5 5 5 4 4 4 3 3 2 3 2 1 0 0 -0 -1 -1 -1 -1
15 14 14 13 12 12 13 12 12 12 12 12 11 11 10 9 9 8 8 7 6 6 5 5 6 5 4 4 4 3 2 1 1 0 0 0 -0 -1 -1 -1 -1 -1 -2
15 15 14 13 13 13 12 12 12 12 11 11 11 10 9 9 8 8 7 7 6 6 5 4 3 4 4 3 3 2 2 1 0 -0 -1 -1 -1 -1 -1 -1 -1 -2 -2
15 15 14 14 13 13 12 12 12 11 10 11 11 10 9 8 8 7 7 6 5 5 4 3 3 3 3 3 2 2 1 0 -0 -1 -1 -1 -2 -2 -2 -2 -2 -3 -3

GFSSE_850_temp_063.txt.gz
Temp
15 15 15 16 16 17 17 17 17 17 17 17 16 16 16 16 16 16 16 16 16 16 16 15 14 14 14 14 13 13 13 13 13 13 14 14 13 14 14 13 13 13 13
15 15 15 16 16 17 17 17 17 17 17 17 16 16 16 16 16 16 16 16 16 16 15 14 14 14 14 14 13 13 13 13 13 13 13 13 13 13 13 13 13 13 13
14 14 15 15 16 16 17 17 17 17 16 16 16 16 16 16 16 15 16 16 16 15 15 14 14 14 14 13 13 13 13 13 13 12 12 11 12 12 13 13 13 13 13
14 14 15 15 15 16 16 16 16 16 16 16 16 16 16 15 15 15 15 15 15 14 14 14 14 13 13 13 13 13 13 12 12 12 12 10 11 12 12 12 12 12 12
14 14 14 15 15 15 15 16 16 16 16 16 16 16 15 15 15 15 15 14 14 14 14 14 14 13 13 13 12 12 12 12 12 12 12 11 10 11 11 11 12 12 12
14 14 14 14 13 15 15 15 16 16 16 15 15 15 15 15 15 14 14 14 14 14 14 14 14 13 13 12 12 12 12 12 12 11 11 11 11 11 11 11 11 11 11
14 13 14 14 14 15 14 15 15 16 15 15 15 15 15 14 14 14 14 14 13 14 14 13 13 13 13 12 12 12 12 11 11 11 10 10 10 11 11 10 10 10 11
14 13 13 13 13 13 13 14 15 15 16 15 15 14 14 14 13 13 14 13 13 13 13 13 13 12 12 12 11 11 11 11 11 11 10 8 10 10 10 10 10 10 10
14 13 12 12 12 12 13 13 15 15 15 15 14 15 14 13 13 13 13 13 13 13 13 13 12 12 12 12 11 11 11 11 10 10 9 8 8 9 9 9 9 9 9
13 13 12 12 12 10 12 13 13 14 15 15 15 14 13 13 13 13 12 13 13 12 13 12 12 12 12 11 11 11 11 11 10 10 9 8 8 7 8 9 8 8 8
13 12 12 11 11 10 10 12 12 13 15 15 14 13 13 13 13 13 13 12 12 13 12 12 12 11 11 11 11 11 10 10 10 10 9 9 9 8 8 7 7 7 7
12 11 11 11 9 11 10 10 12 14 14 14 14 13 13 13 13 13 13 12 13 11 12 12 11 11 11 11 10 10 10 10 10 9 9 8 8 7 7 7 6 6 6
11 10 10 10 10 10 10 12 14 13 14 14 13 13 13 13 13 13 13 12 12 12 12 11 11 11 10 10 10 11 10 10 10 9 8 7 7 6 6 6 5 4 5
11 10 11 11 10 10 11 13 13 14 14 13 13 13 13 12 12 12 12 12 12 12 12 11 10 11 10 10 10 10 11 10 10 9 8 8 7 7 5 5 4 4 3
10 10 11 11 12 12 13 13 13 13 13 13 13 12 12 12 12 12 12 12 12 11 11 10 11 11 10 10 10 10 10 10 9 9 8 8 8 6 5 4 4 4 3
10 10 11 11 12 12 12 12 13 13 12 12 12 12 12 12 12 12 12 12 11 11 10 10 10 10 10 10 10 9 9 9 9 9 8 8 7 6 6 5 5 4 3
9 10 11 11 11 11 12 13 13 12 12 12 12 12 12 12 12 12 12 11 11 10 10 10 10 9 9 9 9 9 8 8 8 8 8 7 6 5 5 4 4 4 3
12 12 12 12 12 12 12 12 12 12 12 12 11 12 12 12 12 12 11 11 10 10 10 9 9 9 9 8 8 8 8 7 6 6 5 4 4 4 4 4 4 3 3
12 12 12 12 11 11 12 12 12 12 11 11 12 12 12 12 12 12 11 10 10 9 9 9 9 9 8 8 8 7 7 6 5 5 4 4 4 4 3 3 3 3 3
12 13 12 12 12 12 12 12 12 12 11 12 12 12 12 12 11 11 10 9 9 9 9 9 8 8 8 7 6 6 6 5 4 4 4 4 4 3 3 3 3 3 2
13 13 13 13 12 12 12 12 11 12 12 11 12 12 12 11 11 11 10 9 9 9 9 8 8 7 6 6 5 5 5 4 4 3 3 3 3 3 2 2 1 1 1
14 13 13 13 13 13 13 13 12 12 12 12 12 11 10 11 11 10 10 9 9 9 8 7 7 6 5 4 4 5 4 3 3 3 3 2 2 2 1 1 0 0 -0
14 14 14 14 13 12 12 12 12 12 11 11 12 11 11 11 10 10 9 9 8 8 7 7 6 5 4 4 4 4 3 4 2 2 3 2 2 1 1 0 -0 -1 -1
15 14 14 13 13 13 12 12 12 12 12 12 12 11 11 11 10 9 9 8 8 8 7 6 5 4 4 3 4 4 3 3 2 2 1 1 1 0 -1 -1 -2 -1 -2
15 15 14 14 13 13 12 12 12 12 12 12 11 11 11 10 10 9 8 8 8 7 6 5 5 3 3 2 3 3 3 2 2 1 1 1 -1 -1 -1 -2 -2 -2 -2
16 15 15 14 14 14 13 12 12 12 12 11 10 10 10 10 9 9 8 8 7 6 5 5 5 4 3 3 3 3 2 1 1 -0 -0 -1 -1 -2 -2 -2 -3 -3 -2

GFSSE_850_temp_069.txt.gz
Temp
17 17 17 17 17 17 17 16 17 17 17 17 17 17 16 16 16 16 16 16 16 15 15 14 14 14 15 14 14 14 14 14 13 13 14 14 13 13 13 12 11 13 13
16 18 17 16 16 16 16 16 17 16 17 16 16 16 16 16 17 16 16 16 15 15 14 14 14 14 14 14 14 14 13 14 13 12 13 13 13 13 13 13 13 13 13
16 15 16 15 16 16 16 16 16 16 16 16 16 16 16 16 16 16 16 15 15 15 14 14 14 14 14 14 13 13 13 13 13 13 13 12 12 13 12 12 12 12 12
15 15 14 14 15 15 15 16 16 16 16 16 16 16 16 16 16 16 16 15 15 14 14 14 14 14 13 13 13 13 13 13 13 14 14 12 10 12 12 12 12 12 11
15 15 14 14 15 15 15 15 15 15 16 16 16 16 16 16 16 15 15 15 14 14 14 14 14 13 13 13 13 13 12 12 13 13 12 11 10 12 12 12 12 12 12
15 15 15 15 14 15 15 15 15 16 16 15 16 16 15 15 15 15 15 14 14 14 14 13 13 13 13 13 13 12 12 13 13 13 12 10 10 11 11 11 11 12 12
14 14 15 16 14 15 15 15 15 15 15 15 15 16 15 15 15 15 15 14 14 14 14 13 13 13 13 12 12 12 12 13 13 13 12 9 10 11 11 11 11 11 11
14 14 14 14 14 14 14 14 14 15 15 15 15 16 15 15 15 15 14 14 14 14 13 13 13 13 12 12 12 12 12 12 13 13 12 9 10 10 10 10 10 10 10
14 14 12 12 12 13 12 13 14 14 14 14 15 15 15 15 15 14 14 14 14 13 13 13 12 12 12 12 11 12 12 11 12 12 12 9 9 9 9 9 9 9 9
13 12 12 12 12 12 11 13 14 14 14 14 15 15 15 14 14 14 14 14 13 13 13 13 12 12 11 11 11 12 11 11 12 13 10 9 8 7 8 8 8 8 8
13 13 12 12 12 12 12 10 12 13 13 14 14 13 13 13 13 13 13 13 13 13 12 12 12 11 11 11 12 12 11 11 12 12 9 9 7 6 7 7 7 8 8
13 12 12 12 12 12 11 11 10 11 12 12 12 12 12 13 11 13 12 13 13 12 12 12 11 11 11 11 10 10 10 10 11 11 10 9 7 7 7 7 6 6 7
12 12 12 11 12 10 10 9 10 10 11 11 11 11 13 11 11 12 12 12 12 11 11 11 11 10 11 10 10 11 10 10 10 10 10 10 9 7 7 7 6 5 5
10 10 10 10 8 8 8 10 11 11 11 10 12 11 10 11 11 12 12 12 11 10 10 10 10 11 11 11 11 11 10 10 10 10 9 10 9 7 6 5 5 5 5
10 10 9 8 7 7 9 10 9 9 9 11 11 10 10 11 11 11 10 10 10 10 10 9 11 11 11 11 10 9 10 11 10 9 8 9 9 8 6 5 5 5 5
9 9 8 8 8 9 8 8 10 11 12 11 11 11 11 11 11 11 10 11 10 10 10 9 10 10 9 9 10 11 11 9 8 8 8 8 8 7 7 6 6 5 5
9 8 9 9 8 8 8 9 10 10 10 10 10 10 11 11 11 11 10 10 10 10 9 9 10 9 9 9 10 9 9 9 7 7 8 7 7 6 6 5 5 5 5
9 9 9 9 9 10 10 10 11 11 11 11 11 11 11 11 11 10 10 11 11 9 10 10 9 9 9 9 9 9 8 8 7 7 7 7 7 6 6 5 5 5 4
9 10 10 10 10 10 10 11 11 11 11 12 11 10 12 12 12 12 12 11 10 9 9 9 9 9 9 9 9 8 8 8 7 7 6 6 5 5 5 5 4 4 4
10 10 11 10 11 11 11 11 11 11 11 11 11 11 11 11 12 12 10 9 11 9 9 9 9 9 9 9 9 8 7 7 7 6 6 6 5 4 4 4 3 4 3
12 11 12 11 11 11 11 12 12 12 12 12 11 11 11 12 12 12 10 10 10 9 9 9 9 9 8 8 8 9 8 7 6 6 6 5 5 5 4 3 3 3 3
13 13 13 13 13 12 13 13 13 13 13 13 11 11 11 11 12 12 10 10 10 9 8 8 8 8 8 7 8 8 9 8 6 6 5 5 5 4 4 4 3 2 2
14 14 14 14 14 13 14 13 13 12 12 12 12 10 11 12 11 11 10 9 9 9 8 7 8 8 8 7 7 7 7 8 7 8 7 5 5 4 4 4 3 3 2
15 15 14 14 15 14 13 13 13 13 13 13 12 10 10 10 11 12 10 10 9 9 8 7 7 7 7 7 6 7 7 5 6 7 8 6 5 4 4 3 3 3 2
15 15 14 14 15 15 13 13 13 13 13 13 12 11 10 11 12 11 10 8 8 9 8 7 7 6 7 6 6 5 5 4 4 4 5 6 6 5 5 4 3 2 2
16 15 14 14 15 14 14 13 13 13 13 14 12 11 10 10 12 11 10 9 7 8 7 7 6 6 6 6 6 5 4 4 5 5 5 5 5 5 4 4 3 2 1

GFSSE_850_temp_072.txt.gz
Temp
18 18 17 18 18 18 17 18 18 18 18 17 17 17 17 17 17 17 16 16 15 15 14 14 15 15 15 15 14 14 14 13 13 13 13 13 13 13 12 13 13 13 13
15 17 17 17 17 17 17 17 18 17 17 17 17 17 17 17 17 16 16 15 15 14 14 14 15 14 14 14 14 13 13 13 12 12 13 13 13 12 13 12 13 13 13
13 17 16 17 17 17 17 17 17 17 17 17 17 16 16 16 16 16 15 13 14 14 14 14 14 14 14 14 13 13 13 13 12 12 12 12 13 12 12 12 12 12 11
14 16 16 15 16 16 16 16 16 16 16 16 16 16 16 16 16 15 13 13 14 14 14 14 14 14 13 13 13 13 13 13 13 12 11 12 12 12 12 12 12 11 12
14 15 15 15 14 15 15 16 16 16 16 16 16 16 16 16 15 15 14 13 14 14 14 14 13 13 13 13 13 13 13 13 13 13 12 12 12 12 12 12 12 12 12
15 15 15 14 14 15 15 15 16 15 15 15 16 16 16 15 15 14 14 13 14 14 14 13 13 13 13 13 13 13 13 13 12 12 13 12 12 12 12 12 12 12 12
16 15 15 14 14 14 14 15 15 15 15 15 16 16 15 15 15 14 14 14 14 14 14 13 13 13 13 13 13 13 13 13 13 12 12 12 12 12 12 12 11 11 11
14 14 14 14 14 14 13 14 14 15 15 15 15 15 15 15 15 14 14 14 14 14 13 13 13 12 13 12 13 12 13 13 12 12 12 12 11 11 11 11 11 10 10
15 16 14 13 14 13 13 13 14 14 15 15 15 15 15 15 15 15 14 14 14 13 13 13 12 12 12 12 13 12 12 12 12 11 11 12 12 11 10 10 10 10 10
14 14 15 13 13 12 12 12 13 14 14 15 15 14 14 14 14 14 14 14 13 13 13 12 12 12 12 12 12 12 12 12 12 12 11 11 11 10 10 9 9 9 8
13 12 12 12 12 13 12 12 11 13 13 13 13 13 13 13 13 13 13 13 13 13 12 12 12 12 11 11 12 11 11 12 11 11 11 11 9 9 9 8 8 8 8
12 12 12 12 12 11 12 11 10 11 12 12 12 12 12 13 13 13 13 13 13 12 12 12 12 11 11 11 11 12 12 11 11 11 11 10 8 8 8 8 8 8 7
12 12 12 12 11 12 11 10 10 10 10 11 12 12 12 13 13 13 12 12 12 12 12 11 11 11 10 11 11 12 11 10 10 10 10 10 9 7 8 9 8 8 7
12 12 12 11 10 10 11 10 9 10 10 11 11 11 11 12 13 12 12 12 12 12 11 11 11 10 11 11 11 12 11 11 10 10 10 10 10 8 9 9 8 7 6
10 10 10 10 9 9 9 9 9 9 10 11 11 11 12 11 13 11 11 12 11 11 11 11 10 11 11 11 11 11 10 10 10 9 9 10 10 9 8 7 6 5 5
10 9 9 9 8 8 8 8 9 10 10 11 12 11 11 11 11 11 11 11 11 10 10 10 11 11 10 11 11 11 10 9 10 9 9 9 9 8 8 7 7 6 6
9 8 8 8 8 8 8 8 7 9 10 11 11 10 11 11 11 11 11 10 11 10 10 10 10 9 10 9 10 10 10 11 10 9 8 8 7 7 7 6 6 6 6
9 9 9 9 9 8 8 8 9 9 9 10 10 12 12 10 11 11 11 11 10 10 10 10 10 10 9 9 9 9 9 9 9 9 7 7 7 6 6 6 5 5 5
10 9 9 9 9 9 10 10 10 10 11 11 11 11 11 11 11 11 11 11 11 10 10 10 10 10 9 9 9 9 9 8 8 7 7 7 7 6 5 5 5 4 4
10 10 10 10 10 10 10 10 11 11 11 11 11 11 11 11 11 11 12 11 10 10 10 10 9 9 9 9 10 10 9 9 8 7 7 6 6 6 5 4 4 4 4
10 11 11 10 10 10 10 10 10 11 11 11 12 12 11 11 11 12 11 10 11 10 10 10 9 9 9 9 9 9 9 9 8 8 7 6 6 6 5 5 4 4 3
11 11 11 11 10 11 11 11 11 12 12 12 11 11 11 11 11 12 11 10 11 10 9 9 9 9 9 8 9 9 9 7 8 8 7 6 6 5 5 5 4 4 3
11 11 12 11 12 13 12 12 12 12 12 12 12 12 12 11 11 11 12 10 11 10 9 9 9 8 8 8 8 8 8 8 8 8 7 7 6 6 6 4 4 4 3
13 13 13 13 13 13 13 13 13 13 13 13 13 12 12 11 11 10 11 10 9 10 9 9 10 9 8 8 8 8 7 7 6 6 7 6 6 6 5 5 4 4 3
14 14 14 14 14 14 14 14 14 13 13 13 13 12 12 12 11 10 10 10 9 10 9 8 9 9 8 8 7 7 7 6 6 5 5 6 6 6 5 5 4 3 3
15 15 14 14 14 15 14 15 13 13 13 13 13 13 13 12 12 12 11 10 10 10 9 8 7 7 7 7 7 6 6 5 5 5 5 5 5 5 5 5 4 4 3

GFSSE_850_temp_075.txt.gz
Temp
15 15 16 17 18 18 19 18 19 18 18 18 18 18 17 17 17 16 16 16 15 15 14 15 15 15 15 14 14 13 12 12 13 13 14 14 13 13 13 14 14 13 13
17 14 15 16 17 18 18 18 18 18 17 17 17 17 17 17 16 16 15 15 15 14 15 15 15 14 14 13 13 12 12 12 12 12 13 13 13 13 12 12 13 13 13
20 17 17 15 16 16 17 17 17 17 17 17 17 16 16 16 16 14 14 14 14 14 15 14 14 14 13 13 12 12 11 11 11 12 13 13 13 13 13 12 12 10 10
18 17 18 14 15 15 16 17 17 17 16 16 16 16 16 16 15 14 14 14 14 14 14 14 14 14 13 13 12 12 12 12 12 12 13 13 13 12 12 12 12 12 11
18 18 16 14 15 15 16 16 16 17 16 16 16 17 16 16 14 14 14 15 15 14 14 14 14 14 13 13 13 12 12 13 12 13 13 13 13 12 12 12 12 12 10
17 18 14 15 16 16 16 16 16 16 16 16 16 16 16 15 14 14 14 15 14 14 14 14 14 14 13 13 13 12 12 12 13 13 13 13 13 12 13 12 12 12 12
16 15 19 14 15 15 15 16 16 16 16 16 16 16 16 15 14 13 14 14 14 14 14 14 13 13 13 13 13 12 12 12 12 12 13 13 12 12 12 12 12 12 12
16 14 14 14 14 14 14 15 15 15 16 16 16 16 15 14 14 14 15 14 14 14 14 13 13 13 13 13 13 12 12 11 12 12 12 12 12 12 12 12 12 11 11
16 15 14 13 13 13 14 14 14 15 15 16 15 15 15 14 14 14 14 14 14 14 13 13 13 13 13 13 12 12 12 12 12 12 12 12 12 12 12 11 11 11 11
15 15 13 12 12 13 13 12 13 14 15 15 14 14 14 14 14 14 14 14 14 13 13 13 13 12 13 12 12 12 12 11 11 11 11 12 12 11 11 10 10 10 10
12 12 13 13 13 13 11 10 11 13 14 14 13 13 13 14 13 14 14 14 13 13 12 12 12 12 12 12 12 11 11 11 11 11 11 11 12 11 11 11 10 9 9
12 12 12 14 13 12 13 11 10 12 12 13 12 12 13 13 14 14 13 13 13 12 12 11 12 11 12 12 12 11 11 11 11 11 11 11 12 11 11 10 10 10 8
12 12 11 11 11 12 11 11 9 11 12 12 12 12 13 13 13 14 13 13 12 12 12 11 11 12 12 11 11 11 11 11 11 11 10 11 11 11 11 10 10 9 9
12 11 11 11 12 12 11 10 11 10 11 11 11 12 13 13 13 14 13 12 12 12 11 11 12 11 11 11 11 11 11 11 11 11 10 10 10 9 9 9 10 9 9
11 11 11 11 10 10 11 10 10 10 11 11 11 12 12 13 13 13 13 12 12 11 11 12 11 11 11 11 12 12 11 11 11 10 9 9 9 9 8 9 8 8 8
11 10 10 10 10 10 10 10 10 11 10 11 11 11 11 12 13 13 13 12 11 11 11 12 11 11 11 11 12 11 11 10 10 10 9 9 9 9 8 8 7 7 6
10 9 9 9 10 9 8 9 10 10 10 10 11 11 11 13 13 12 12 12 11 11 11 10 11 10 11 11 11 11 10 10 10 10 10 10 9 8 8 7 7 7 6
10 9 9 9 9 9 9 10 10 10 10 10 12 13 13 13 11 11 11 11 10 10 10 11 10 10 10 10 10 10 10 10 9 10 10 9 8 8 7 7 6 6 6
10 9 9 9 9 9 9 9 9 9 9 11 12 13 13 11 10 11 10 11 10 10 10 10 10 10 10 10 10 9 9 9 10 9 8 8 8 7 7 7 6 6 5
9 9 9 9 9 9 8 9 9 9 10 11 11 12 11 11 11 11 12 11 11 11 11 10 10 10 9 10 9 9 9 9 9 9 9 8 7 7 6 6 6 6 5
9 9 9 10 10 9 9 8 9 10 10 10 11 11 11 11 12 12 12 11 11 11 11 10 10 10 9 9 9 9 9 9 9 8 8 8 8 7 6 5 5 4 4
11 11 11 11 11 11 11 11 11 11 10 11 11 11 11 11 11 12 12 11 11 11 10 10 10 9 9 9 9 9 9 8 8 8 8 7 7 7 6 6 5 5 4
11 12 12 11 11 11 11 11 10 10 11 11 11 11 11 11 12 12 11 11 11 10 10 10 10 10 9 9 9 9 8 8 8 8 8 7 7 6 6 6 6 5 4
12 12 12 12 11 12 11 11 11 11 11 11 12 12 12 12 11 11 11 11 11 10 10 10 9 10 9 9 9 8 8 8 8 7 7 7 7 6 6 6 5 5 4
13 13 12 11 11 12 12 12 12 12 12 12 12 12 11 11 12 11 11 11 10 10 9 9 9 9 9 8 8 8 8 7 7 7 6 7 6 6 5 5 4 4 4
13 13 13 11 12 12 13 13 13 12 12 12 12 12 12 12 12 12 11 11 10 9 10 10 10 8 8 7 7 7 7 7 7 6 5 5 5 5 5 5 4 4 3

GFSSE_850_temp_081.txt.gz
Temp
16 17 16 16 17 16 17 18 18 17 19 17 17 16 16 16 17 17 16 15 14 14 14 15 15 15 14 14 14 13 13 13 12 11 10 10 11 12 13 13 13 12 11
15 16 16 17 17 17 16 16 16 18 19 17 17 17 16 17 17 16 16 15 14 14 15 14 14 14 14 13 13 13 13 13 13 13 11 10 10 11 11 11 12 10 10
15 16 16 17 18 18 17 17 16 17 18 18 17 16 16 16 16 16 15 15 15 15 14 14 14 13 13 13 12 12 12 13 13 13 13 12 10 10 10 10 10 10 10
15 16 16 18 18 19 19 18 16 17 17 17 17 17 16 16 16 16 15 15 15 15 14 14 13 13 13 13 12 13 13 13 13 13 13 13 10 9 10 9 9 9 9
18 16 16 17 18 18 19 17 16 17 17 17 16 16 16 16 15 15 15 15 14 14 13 13 13 13 13 13 12 12 12 13 13 14 13 13 13 10 10 10 9 8 9
16 17 16 16 17 18 18 17 15 15 16 17 17 16 15 15 15 15 15 15 14 13 13 12 12 12 13 12 12 12 12 13 13 13 14 13 13 11 12 12 13 12 10
15 15 15 15 15 16 17 16 14 15 16 16 16 15 14 14 15 15 14 14 14 13 12 12 12 12 13 12 12 12 12 12 13 13 13 13 13 12 12 12 12 11 11
13 13 14 14 13 14 15 13 14 14 15 16 16 13 14 14 14 15 15 14 14 13 12 12 13 13 13 12 12 12 12 12 12 13 13 13 13 12 12 12 12 12 11
14 14 13 14 12 11 12 12 13 13 14 16 16 13 13 14 14 15 14 14 14 13 12 12 13 13 12 12 12 12 11 12 12 13 13 13 12 12 12 12 12 11 11
14 13 13 12 13 13 12 12 12 12 12 16 14 13 13 14 14 14 14 14 14 13 12 12 13 12 13 12 12 12 12 12 12 12 12 12 12 12 11 11 11 11 11
12 12 12 12 11 11 11 13 11 11 11 15 13 13 13 13 14 14 14 13 13 13 13 13 13 13 12 12 12 12 12 12 12 12 12 12 12 12 11 11 11 11 10
11 12 12 11 11 10 11 11 11 10 11 13 13 12 13 13 13 13 13 13 13 13 13 12 13 12 12 12 12 12 12 12 12 12 11 12 12 11 11 11 11 10 10
11 11 11 11 11 12 11 11 10 9 10 12 12 12 13 13 13 13 13 13 13 13 13 13 12 12 12 12 12 12 12 12 12 11 12 12 11 11 11 11 10 10 10
11 11 11 11 12 12 12 12 11 10 12 12 13 12 13 13 13 13 13 13 13 13 13 12 12 12 12 12 12 12 12 11 11 11 11 11 11 11 11 10 10 10 9
11 11 11 11 12 11 11 10 11 10 12 13 13 13 13 13 13 13 13 13 13 13 13 13 12 12 12 12 12 11 11 11 11 11 11 11 11 11 11 10 10 9 9
11 11 11 11 12 10 10 10 11 9 10 12 13 13 13 13 13 13 13 13 13 13 13 12 12 12 11 11 11 11 11 11 11 11 11 11 10 10 10 9 9 8 8
10 10 10 11 11 11 11 11 10 10 11 11 11 12 13 13 14 13 13 13 12 13 13 12 11 11 11 11 11 11 11 11 11 11 11 10 10 10 9 8 8 7 7
10 10 11 10 10 10 10 10 10 10 11 11 12 12 13 12 13 13 13 12 12 13 12 12 11 11 11 11 11 11 11 11 11 11 11 10 10 9 9 8 8 8 7
10 10 10 10 9 9 10 9 10 10 11 12 12 12 12 12 12 13 12 12 12 13 12 12 11 11 11 11 11 11 10 10 10 11 10 10 9 9 8 8 8 7 7
10 9 9 9 10 9 9 9 10 10 11 11 11 12 12 12 12 13 12 11 12 12 11 11 11 11 10 10 10 10 10 10 10 10 10 9 9 8 8 7 7 7 7
9 9 9 9 9 8 8 8 10 10 10 11 11 11 12 12 12 13 11 11 11 12 12 12 11 10 10 10 9 9 9 9 9 9 9 9 9 8 8 8 7 7 7
9 9 8 9 9 8 8 8 9 9 9 10 11 11 12 12 13 11 10 11 12 12 11 11 10 10 10 10 9 9 9 9 9 9 9 9 9 8 8 7 7 7 6
9 8 8 9 9 8 8 9 9 9 10 10 11 11 11 11 11 11 11 11 11 11 11 11 10 10 10 10 9 9 9 9 9 9 9 8 8 8 7 7 7 6 6
11 10 9 9 9 9 8 9 9 9 9 10 11 11 11 11 11 11 11 11 11 11 11 11 11 11 10 10 9 9 9 9 9 8 8 8 7 7 7 7 6 6 5
11 11 11 10 9 9 9 8 9 9 9 10 11 11 11 11 11 12 12 12 11 11 11 11 10 10 10 9 9 9 8 7 8 7 7 7 7 7 6 6 5 6 5
13 13 12 12 11 10 9 9 9 9 9 10 10 11 12 13 13 13 13 12 12 11 11 11 11 11 10 9 9 9 9 8 7 6 6 6 6 6 6 5 5 5 5

GFSSE_850_temp_084.txt.gz
Temp
16 16 16 17 16 17 17 18 18 18 18 18 19 17 17 17 16 15 15 15 14 14 14 14 14 15 15 14 14 14 14 14 14 13 12 12 13 13 12 13 11 11 11
16 16 17 16 17 17 17 17 18 18 18 18 18 17 16 16 16 15 14 15 14 14 15 15 15 15 14 14 14 14 14 14 14 12 11 10 10 10 12 11 10 10 10
15 18 18 17 17 17 17 17 18 18 17 17 17 17 16 16 16 14 14 14 14 14 14 14 14 14 13 13 13 14 13 13 14 14 13 11 10 10 10 10 9 9 9
15 15 16 17 17 17 16 16 17 17 17 17 17 17 17 16 16 14 14 14 14 14 14 14 13 13 13 14 13 13 13 13 13 13 13 11 9 9 9 9 9 9 9
15 14 14 15 17 17 16 16 17 16 16 16 17 17 17 16 15 14 14 14 14 15 11 13 13 13 13 13 13 13 13 13 13 13 13 12 9 9 9 8 8 8 8
16 15 14 14 14 15 16 16 16 16 16 16 16 17 17 15 14 14 14 13 14 14 14 13 13 12 12 12 13 13 13 13 13 13 13 12 12 10 11 11 10 11 9
16 16 16 13 14 14 15 16 17 17 16 17 18 17 16 15 14 13 13 12 14 14 14 13 13 12 12 12 12 13 13 13 13 13 12 12 11 11 11 11 11 12 12
16 15 15 14 13 13 14 15 16 17 16 16 17 17 16 15 14 13 12 13 14 13 13 13 13 12 12 12 12 12 12 13 13 13 12 12 12 12 12 12 12 12 12
15 16 15 14 12 13 12 12 14 16 16 15 16 16 15 15 13 13 13 13 13 13 13 13 12 12 12 12 12 12 12 12 13 13 13 12 12 13 13 12 12 12 12
15 15 14 14 13 13 12 12 12 14 15 15 15 16 17 14 13 13 12 12 12 13 13 13 13 12 12 12 12 12 12 12 12 12 12 12 12 12 12 12 12 12 11
14 13 14 13 13 12 11 12 12 11 12 13 13 15 14 14 13 12 12 12 12 12 12 12 13 13 12 12 12 12 12 12 12 12 12 12 12 12 12 12 11 11 11
12 12 12 12 12 12 11 11 11 11 11 11 12 13 15 14 13 12 12 12 12 12 12 12 12 12 13 12 12 11 11 11 12 12 12 12 11 12 11 11 11 11 11
11 12 12 12 11 11 11 11 11 11 10 11 12 13 14 13 12 12 11 12 13 13 13 13 13 12 13 12 12 11 11 11 11 11 11 11 11 11 11 11 10 10 10
11 11 11 12 12 11 11 12 11 11 10 11 11 13 13 13 12 12 12 12 13 13 13 13 12 12 12 12 12 11 11 11 11 11 11 11 11 11 10 10 10 10 9
11 11 11 11 11 10 11 10 10 10 10 10 12 13 13 13 12 12 12 12 12 12 13 12 12 12 12 12 11 11 11 11 11 11 11 11 10 10 10 9 9 9 8
11 11 11 11 11 11 11 10 11 11 11 10 11 13 13 13 12 12 12 12 12 12 12 12 12 12 12 12 12 11 11 11 11 11 10 10 10 10 9 9 9 8 8
10 11 11 10 10 10 10 10 10 10 9 10 11 12 13 13 12 13 12 12 12 12 11 12 12 12 11 12 12 11 11 11 11 11 10 10 10 9 9 8 8 8 7
10 10 10 10 9 9 10 10 10 10 9 10 10 11 12 12 12 13 12 12 12 12 11 12 12 12 11 11 11 11 11 10 10 10 10 10 9 9 9 9 8 8 7
10 10 10 9 9 9 9 9 10 9 10 10 11 10 11 12 13 12 12 13 12 11 11 12 12 11 11 11 11 11 11 10 10 10 10 9 9 9 9 9 8 7 7
9 9 10 9 9 9 9 9 9 9 10 10 10 10 11 11 12 12 12 12 12 11 11 11 11 11 11 10 10 10 10 10 10 10 10 9 9 9 9 8 8 7 7
9 9 9 9 9 9 9 9 8 9 10 10 10 10 10 11 12 11 11 11 11 12 11 11 11 11 11 10 10 10 10 10 10 10 10 10 9 9 8 8 8 7 7
9 9 9 9 9 9 8 8 8 9 10 10 10 10 11 11 11 11 11 11 11 11 10 10 11 11 10 10 10 9 9 9 10 9 9 9 9 9 9 8 7 7 7
8 9 8 8 9 8 8 8 8 9 10 10 10 11 10 10 11 11 11 11 12 11 11 11 11 11 11 10 10 9 9 9 10 10 10 10 9 8 8 8 7 7 6
9 8 8 8 9 9 8 9 9 10 10 10 10 10 10 11 11 11 11 12 12 11 11 11 11 11 10 10 9 9 9 9 9 9 9 9 9 8 7 8 7 6 6
10 9 9 9 9 9 8 9 9 9 10 10 10 10 10 10 11 11 12 12 11 11 11 11 11 11 10 10 9 9 9 9 9 8 8 8 8 7 7 7 6 7 6
12 11 10 9 9 9 9 9 9 9 9 10 10 10 11 11 11 11 12 11 11 11 11 11 11 10 10 10 10 10 9 9 9 8 8 7 7 6 6 6 6 5 6

GFSSE_850_temp_087.txt.gz
Temp
17 18 17 17 17 18 18 18 18 18 18 18 18 17 18 17 17 16 16 15 14 14 14 14 13 13 14 14 14 13 13 12 13 13 13 13 13 14 13 12 12 12 12
16 17 17 18 17 17 18 18 17 18 18 18 17 16 19 17 16 16 16 15 14 14 14 14 14 14 13 13 13 12 12 12 12 12 13 13 12 13 13 13 12 12 12
16 16 17 17 15 17 17 18 18 18 17 17 17 16 18 17 16 15 15 14 14 14 14 14 14 13 13 13 12 12 12 12 13 13 12 11 10 10 11 11 11 12 12
16 16 16 15 16 16 17 18 17 17 17 17 17 17 17 16 16 15 14 14 14 14 14 14 13 13 14 14 13 13 13 13 13 13 10 10 10 10 10 10 9 11 11
16 16 15 15 15 16 17 17 17 17 17 17 17 17 17 16 16 15 14 14 13 14 12 13 13 14 13 14 14 13 13 13 13 11 9 9 10 9 9 8 9 9 10
15 14 16 14 15 15 15 16 17 17 16 16 17 17 16 17 15 15 14 14 13 13 11 13 13 13 13 14 14 13 13 13 13 10 9 9 8 9 10 11 11 10 11
15 15 16 15 13 13 15 16 17 17 16 16 16 17 16 16 15 15 14 13 12 12 13 13 13 13 13 13 13 13 13 13 13 11 9 8 8 8 10 11 11 11 12
15 15 15 15 13 12 12 15 16 16 16 16 16 16 16 15 16 14 14 13 13 13 13 13 12 12 13 13 13 13 13 13 13 12 8 8 8 9 11 11 12 12 12
15 15 15 13 12 13 12 12 14 15 16 16 16 15 15 16 15 14 14 14 13 12 13 12 12 12 12 12 13 13 13 13 13 12 9 8 9 9 10 11 11 12 12
15 15 14 14 13 13 11 12 12 13 15 15 15 15 15 14 14 15 15 13 12 13 12 12 12 12 12 12 12 13 13 13 12 12 10 10 11 10 11 11 12 12 12
14 14 14 13 13 12 12 12 12 12 13 13 13 14 14 14 13 14 14 12 12 12 12 12 12 12 12 12 12 12 12 12 12 12 10 11 11 11 11 11 11 11 11
13 13 13 13 12 12 12 11 12 12 11 12 12 13 13 13 14 14 14 12 12 12 12 12 12 12 12 12 11 12 12 12 12 11 8 10 11 11 11 11 11 11 10
13 12 12 12 12 11 11 10 11 11 11 11 11 11 13 13 13 14 13 12 12 12 12 11 11 12 12 11 12 12 12 12 11 11 10 11 11 11 11 11 11 10 10
11 11 11 11 11 11 11 11 11 11 11 10 11 11 13 13 13 13 13 12 12 12 12 12 12 12 12 11 12 12 12 11 11 11 11 10 11 10 10 10 10 10 10
11 11 11 11 11 11 11 11 10 11 11 10 11 12 12 12 13 13 13 13 13 12 12 12 12 12 12 12 12 11 11 11 11 11 11 10 10 10 10 10 10 9 9
10 11 11 11 11 10 11 11 10 11 10 10 11 12 12 12 13 13 13 13 12 12 12 12 12 12 12 12 12 11 11 11 11 11 11 10 10 10 10 9 9 9 8
10 10 11 11 10 10 10 10 10 10 10 10 11 12 12 12 13 13 12 12 12 12 12 12 12 11 12 12 11 11 11 11 11 11 10 10 10 9 9 9 9 8 7
10 10 10 10 10 10 10 10 10 10 10 10 10 12 12 12 12 12 12 12 12 12 11 12 12 11 11 12 11 11 11 11 11 10 10 10 10 9 9 8 8 7 7
10 10 11 10 10 10 10 10 10 10 9 9 10 12 12 12 12 12 12 11 11 11 11 12 11 11 11 11 11 11 11 11 10 10 10 10 9 9 9 8 7 7 7
10 9 10 10 9 9 10 9 9 9 9 9 10 10 12 12 12 11 11 11 11 11 11 12 11 11 11 11 11 11 11 11 10 10 10 9 9 9 8 8 8 8 7
9 9 10 10 10 9 9 9 9 8 8 9 9 11 11 11 12 12 11 11 11 11 12 12 11 10 10 11 10 10 10 10 10 10 10 9 9 9 9 8 8 8 7
9 9 9 9 9 9 9 8 9 9 8 9 9 10 10 10 11 11 12 12 11 11 11 11 11 11 10 10 10 10 9 10 10 10 10 10 9 9 9 8 8 7 7
9 9 9 9 9 9 9 9 8 8 9 9 9 9 10 10 10 11 11 11 11 12 11 11 11 10 10 10 10 10 9 9 10 10 10 10 9 9 9 8 7 7 7
9 8 9 9 9 9 9 9 9 9 9 10 10 10 9 10 10 10 11 11 12 11 11 11 11 10 10 10 10 10 10 10 9 9 10 10 9 9 9 8 7 6 6
9 8 8 8 8 8 9 9 9 9 9 9 10 9 9 10 10 10 11 11 11 10 11 11 11 10 10 10 10 10 10 9 9 9 8 8 9 9 8 8 8 7 6
10 9 8 8 8 8 8 8 9 9 9 9 10 9 10 10 10 10 10 10 11 11 11 11 11 11 10 10 10 9 9 9 9 9 9 9 9 8 8 7 8 7 6

GFSSE_850_temp_093.txt.gz
Temp
20 19 18 18 18 16 17 17 18 18 18 18 18 18 18 17 17 17 16 15 16 15 14 14 14 14 14 14 14 14 14 14 14 14 14 13 13 13 13 13 13 13 13
19 18 18 17 17 17 16 17 17 17 17 18 17 18 17 17 16 16 16 15 15 14 14 14 14 13 13 13 13 13 13 13 13 13 13 13 13 12 13 13 13 13 13
18 17 17 17 17 17 17 16 16 16 16 16 17 17 17 17 16 15 16 15 14 14 14 14 15 14 14 13 13 13 13 13 13 13 12 11 11 12 12 12 12 13 13
18 18 16 16 17 16 16 16 16 16 16 16 16 17 17 17 15 14 15 15 14 15 14 14 15 14 14 14 14 13 13 13 12 12 12 11 10 12 12 11 13 13 13
18 16 16 16 16 16 15 16 18 17 15 16 16 16 16 16 15 14 14 14 15 15 15 13 14 14 14 14 13 13 13 13 12 12 11 10 10 10 12 12 13 13 13
17 16 15 16 15 15 15 15 16 17 15 15 15 16 16 15 15 13 14 14 15 16 16 14 14 14 14 13 13 13 13 13 13 12 11 10 9 10 12 13 13 13 14
17 16 15 16 15 15 14 15 13 14 14 15 15 16 16 15 14 13 14 15 15 15 15 15 14 13 13 14 13 13 13 13 13 13 11 10 8 10 12 13 14 13 14
19 17 14 16 15 15 15 14 15 11 14 14 15 16 15 15 14 14 14 14 15 15 15 15 14 14 13 13 13 12 12 13 13 13 11 9 10 11 13 13 13 13 13
18 18 16 16 14 15 15 14 14 13 12 13 15 15 15 16 14 13 13 14 14 15 15 15 14 14 14 13 13 12 12 13 13 12 10 9 11 12 12 12 12 12 12
17 17 16 15 14 15 14 14 13 12 11 12 14 14 15 15 14 13 13 14 14 14 14 14 14 14 14 13 13 12 12 12 12 12 10 10 11 12 12 12 12 12 12
15 13 15 14 13 15 13 13 12 11 11 10 13 15 14 13 14 12 13 13 13 13 14 14 13 13 13 13 12 12 12 13 13 12 9 11 10 11 12 12 12 12 11
14 14 14 13 14 14 13 12 11 13 11 10 12 14 13 12 13 11 13 12 12 13 13 13 13 13 12 12 11 11 12 12 12 10 10 11 11 11 12 12 11 11 11
15 13 12 11 12 14 13 11 11 12 12 12 13 13 13 12 12 12 13 12 12 12 12 12 12 12 10 10 10 11 11 12 12 10 11 11 11 11 11 11 11 11 10
15 13 12 12 12 12 13 12 12 12 12 11 12 12 13 12 12 12 12 12 12 11 12 12 12 11 11 10 11 11 11 12 12 9 11 11 11 11 11 10 10 10 10
14 12 12 11 11 11 11 12 11 11 12 12 11 12 12 12 11 11 11 11 11 11 11 11 11 11 11 10 10 10 11 12 11 10 10 11 11 11 10 9 10 9 9
12 11 11 11 11 11 11 12 11 11 11 12 11 12 11 11 11 11 12 12 12 11 11 11 11 11 11 11 10 10 11 11 11 10 9 11 10 10 9 9 8 9 9
11 11 11 11 11 11 11 11 11 11 11 11 11 11 11 11 11 11 12 12 13 12 12 12 11 11 11 11 10 10 10 10 10 10 9 8 9 10 9 9 9 9 8
11 10 11 11 11 10 11 11 11 11 11 11 10 10 10 11 11 11 12 13 13 12 12 11 11 11 11 11 11 11 11 10 10 10 10 9 8 7 10 9 9 8 8
10 11 11 11 10 10 11 12 11 10 10 11 10 10 10 11 11 11 11 12 11 11 11 11 11 11 11 12 11 11 11 10 10 10 9 9 9 8 8 9 9 9 8
11 11 10 10 10 10 10 10 11 10 10 10 10 10 10 10 10 10 10 10 11 12 11 10 11 11 11 11 12 11 10 10 10 10 9 9 9 8 8 8 9 8 8
11 10 10 10 10 10 10 10 10 10 10 10 10 9 10 10 10 10 11 11 12 12 12 11 10 10 10 10 11 10 9 10 10 9 9 9 9 8 8 9 8 8 8
10 10 10 10 10 10 10 10 10 11 10 10 8 8 9 9 10 12 12 12 11 11 11 10 10 11 10 11 11 11 11 10 10 11 10 9 9 9 9 8 8 8 8
10 11 10 10 10 10 10 10 10 10 9 8 8 8 8 9 9 10 10 10 10 10 10 11 11 12 10 11 11 11 12 12 12 11 11 10 10 9 9 9 8 9 8
10 10 10 9 10 9 10 10 10 11 9 8 8 8 8 8 10 9 9 9 10 11 10 12 12 11 10 11 10 11 11 10 12 12 11 10 10 9 10 10 9 9 8
10 10 9 10 10 9 9 10 10 10 9 9 8 8 8 9 9 9 9 10 10 12 11 11 11 11 10 11 11 11 10 10 10 10 11 11 11 9 9 10 10 10 9
10 10 10 9 9 9 9 9 9 10 9 9 9 9 9 8 8 8 9 10 10 10 11 11 10 11 11 10 10 11 10 10 11 11 10 10 11 11 10 9 9 10 10